Zurück zum Katalog

CZ-3C DEB

LostGTO
NORAD 42481·DEBRIS·🇨🇳 China

Gestartet Feb 24, 2012 von Xichang Satellite Launch Center

Loading…

TLE

VeraltetSource: Space-Track

Epoche: May 10, 2025, 21:40 UTC

1 42481U 12008AR  25130.90344705 -.00000254  00000-0  00000-0 0  9995
2 42481  23.1944 359.2535 6928819 253.8559  24.8256  2.24584998 80204

Verfolge CZ-3C DEB in Echtzeit mit AllMySat

Download on the App Store